This demonstration page uses our WeatherBlox Daily Observations layout. Learn more.

Left ArrowRight Arrow

53.62937, 11.41316

Hourly Observations for January 12, 2016

Temp ( °F °C ) Dew Point ( °F °C ) Humidity (%) Winds ( mph kmh ) Pressure ( in mb ) Visibility ( mi km ) Precip ( " mm )
5:20 am 05:20 Mostly Cloudy with Light Rain 36 2 36 2 100 100 E 6 9 29.18 988 2 3 N/A
5:50 am 05:50 Mostly Cloudy with Light Rain 36 2 36 2 100 100 E 7 11 29.18 988 2 3 N/A
6:20 am 06:20 Mostly Cloudy with Light Rain 36 2 36 2 100 100 E 6 9 29.18 988 2 4 N/A
6:50 am 06:50 Mostly Cloudy with Light Rain 36 2 36 2 100 100 E 6 9 29.21 989 2 4 N/A
7:20 am 07:20 Mostly Cloudy with Light Rain 36 2 36 2 100 100 E 6 9 29.21 989 3 4 N/A
7:50 am 07:50 Mostly Cloudy with Drizzle 36 2 36 2 100 100 E 5 7 29.21 989 3 5 N/A
8:20 am 08:20 Cloudy with Drizzle 36 2 36 2 100 100 ESE 3 6 29.21 989 2 4 N/A
8:50 am 08:50 Cloudy with Drizzle 36 2 36 2 100 100 SE 5 7 29.23 990 3 5 N/A
9:20 am 09:20 Cloudy with Light Rain 36 2 36 2 100 100 SE 3 6 29.23 990 3 5 N/A
9:50 am 09:50 Cloudy with Light Rain 36 2 36 2 100 100 SE 5 7 29.23 990 3 5 N/A
10:20 am 10:20 Cloudy with Drizzle 36 2 36 2 100 100 SE 3 6 29.26 991 4 6 N/A
10:50 am 10:50 Cloudy with Drizzle 36 2 36 2 100 100 SSE 7 11 29.26 991 4 6 N/A
11:20 am 11:20 Cloudy with Light Rain 36 2 36 2 100 100 ESE 3 6 29.26 991 4 7 N/A
11:50 am 11:50 Cloudy with Light Rain 37 3 36 2 93 93 E 3 6 29.26 991 4 7 N/A
12:20 pm 12:20 Cloudy with Light Rain 37 3 37 3 100 100 VRB 1 2 29.26 991 4 6 N/A
12:50 pm 12:50 Cloudy with Light Rain 37 3 37 3 100 100 SSW 6 9 29.29 992 3 5 N/A
1:20 pm 13:20 Cloudy with Mist and Fog 39 4 39 4 100 100 SW 8 13 29.29 992 3 5 N/A
1:50 pm 13:50 Mostly Cloudy with Light Rain 39 4 39 4 100 100 SW 7 11 29.29 992 3 4 N/A
2:20 pm 14:20 Cloudy with Mist and Fog 39 4 39 4 100 100 WSW 9 15 29.29 992 3 5 N/A
2:50 pm 14:50 Cloudy with Drizzle 39 4 39 4 100 100 WSW 9 15 29.29 992 3 4 N/A
3:20 pm 15:20 Mostly Cloudy 39 4 39 4 100 100 SW 10 17 29.29 992 4 6 N/A
3:50 pm 15:50 Partly Cloudy with Mist and Fog 41 5 39 4 93 93 SW 10 17 29.32 993 3 5 N/A
4:20 pm 16:20 Mostly Cloudy with Mist and Fog 41 5 39 4 93 93 SW 10 17 29.32 993 3 5 N/A
4:50 pm 16:50 Mostly Cloudy 39 4 37 3 93 93 SW 8 13 29.35 994 5 8 N/A
5:20 pm 17:20 Mostly Cloudy 41 5 37 3 87 87 WSW 8 13 29.35 994 30 48 N/A
5:50 pm 17:50 Mostly Cloudy 39 4 37 3 93 93 SW 10 17 29.35 994 6 9 N/A

Powered by AerisWeather